Location: Newark
(41.0400°S, 62.7845°W)
Time: 23:58:47
(UTC+00:00)

Transit 2A - Visible Passes

Search period start: 27 November 2021 00:00
Search period end: 07 December 2021 00:00
Orbit: 591 x 967 km, 66.7° (Epoch: 27 November)

Date Brightness Start Highest point End Pass type
(mag) Time Alt. Az. Time Alt. Az. Time Alt. Az.
27 Nov 6.7 02:09:43 10° SSW 02:13:41 33° SE 02:14:17 32° ESE visible
27 Nov 7.7 03:53:06 10° WSW 03:54:45 18° WSW 03:54:45 18° WSW visible
28 Nov 7.3 01:35:50 10° S 01:39:20 23° SE 01:40:52 19° E visible
28 Nov 6.9 03:18:29 10° SW 03:21:20 31° WSW 03:21:20 31° WSW visible
29 Nov 7.7 01:02:09 10° S 01:04:54 16° SE 01:07:28 11° E visible
29 Nov 5.9 02:44:05 10° SW 02:47:57 57° W 02:47:57 57° W visible
30 Nov 8.0 00:28:58 10° SSE 00:30:25 11° SE 00:31:53 10° ESE visible
30 Nov 5.4 02:09:49 10° SSW 02:14:12 86° ESE 02:14:35 74° NE visible
01 Dec 5.9 01:35:41 10° SSW 01:39:58 54° ESE 01:41:16 39° ENE visible
01 Dec 7.9 03:20:16 10° WSW 03:21:45 14° W 03:21:45 14° W visible
02 Dec 6.5 01:01:39 10° SSW 01:05:41 36° SE 01:08:00 21° ENE visible
02 Dec 7.3 02:45:10 10° WSW 02:48:28 22° WNW 02:48:28 22° WNW visible
03 Dec 7.1 00:27:44 10° S 00:31:21 24° SE 00:34:45 11° ENE visible
03 Dec 6.6 02:10:30 10° SW 02:14:30 35° WNW 02:15:14 33° NW visible
04 Dec 6.0 01:36:05 10° SW 01:40:22 55° WNW 01:42:02 34° N visible
05 Dec 5.5 01:01:47 10° SSW 01:06:12 88° WNW 01:08:53 24° NNE visible
06 Dec 5.8 00:27:38 10° SSW 00:31:58 59° ESE 00:35:47 14° NE visible
06 Dec 8.0 02:12:28 10° WSW 02:14:37 13° WNW 02:16:16 11° NW visible
